Volver al catálogo

BREEZE-M DEB

ActivoHEO
NORAD 32032·DEBRIS·🇷🇺 Russia

Lanzado Feb 28, 2006 desde Baikonur Cosmodrome

Loading…

Próximos Pases (próximas 24 horas)

TLE

ActualizadoSource: Space-Track

Época: Sep 14, 2026, 05:22 UTC

1 32032U 06006K   26257.22421090  .00000044  00000-0  82585-4 0  9994
2 32032  51.3666 232.0227 4485007 210.7461 112.9753  6.19864542406302

Sigue BREEZE-M DEB en tiempo real con AllMySat

Download on the App Store